PASIPAKT

Guest
Details From PASI - SITKA ROCKY GUTIERREZ
To PAKT - KETCHIKAN INTL
Flight Number -
Tags generated
Created
Modified
Stats Distance 160 nm / 296 km
Max Altitude 4,300 ft / 1,311 m
Waypoints 3
Social Downloads 0
Likes 0
Share VATSIM

Download

Looking for another format? Having issues loading an existing format? Contact us
Advertisement - Login to hide

Notes

Basic altitude profile: - Ascent Rate: 1500ft/min - Ascent Speed: 150kts - Cruise Altitude: 10000ft - Cruise Speed: 180kts - Descent Rate: 500ft/min - Descent Speed: 160kts Options: - Use NATs: no - Use PACOTS: no - Use low airways: no - Use high airways: no

Route

PASI 5700N13500W PAKT

ID Type Via Altitude Latitude Longitude Leg Dist Tot Dist Heading (true) Name
O PASI APT - 0 ft / 0 m 57.04713˚ -135.36160˚ - 0 nm - SITKA ROCKY GUTIERREZ
5700N13500W LATLON - 4,300 ft / 1,311 m 57.00000˚ -135.00000˚ 12 nm 12 nm 103° / 104° -
O PAKT APT - 0 ft / 0 m 55.35554˚ -131.71374˚ 147 nm 159 nm 131° / 133° KETCHIKAN INTL

Altitude Profile

Advertisement - Login to hide

PASI

Details ICAO PASI (SIT)
Name SITKA ROCKY GUTIERREZ
Region USA (Alaska)
Timezone America/Juneau (UTC-8.0)
Stats Elevation 21 ft / 6 m (AMSL)
Location 57.047128° -135.361597°
Runways 1
Magnetic Variation 18.630° E

METAR

PASI 271153Z 14013G21KT 5SM -RA FEW020 BKN037 OVC045 08/04 A2974

Decode

TAF

PASI 271124Z 2712/2812 15010G20KT P6SM -SHRA SCT025 BKN035 OVC050 TEMPO 2712/2716 BKN025 OVC035 FM272000 17010KT P6SM -SHRA SCT025 OVC050 FM280800 14008KT P6SM -SHRA SCT015 BKN025 OVC040

Decode

Departure Runways

ID Width Length Bearing (true) Bearing (mag) Surface Threshold Offset Overrun Length
11 150 ft / 46 m 6,485 ft / 1,977 m 135.57° 116.94° Asphalt 0 ft / 0 m 0 ft / 0 m
29 150 ft / 46 m 6,485 ft / 1,977 m 315.59° 296.96° Asphalt 0 ft / 0 m 0 ft / 0 m

PAKT

Details ICAO PAKT (KTN)
Name KETCHIKAN INTL
Region USA (Alaska)
Timezone Unknown (UTC+0.0)
Stats Elevation 88 ft / 27 m (AMSL)
Location 55.355545° -131.713737°
Runways 1
Magnetic Variation 18.427° E

METAR

PAKT 271153Z AUTO 13010KT 10SM SCT025 BKN035 BKN048 08/05 A2993

Decode

TAF

PAKT 271124Z 2712/2812 14007KT P6SM -RA OVC050 FM272000 13008KT 5SM -SHRA BR OVC025 FM280000 15008KT 4SM -RA BR BKN015 OVC025 FM280900 14007KT 6SM -RA BR SCT015 OVC025 AMD LTD TO CLD VIS AND WIND 2712/2715

Decode

Destination Runways

ID Width Length Bearing (true) Bearing (mag) Surface Threshold Offset Overrun Length
11 150 ft / 46 m 7,485 ft / 2,281 m 135.66° 117.23° Asphalt 0 ft / 0 m 200 ft / 61 m
29 150 ft / 46 m 7,485 ft / 2,281 m 315.68° 297.25° Asphalt 0 ft / 0 m 100 ft / 30 m

Approach Navaids

Runway Type Ident Frequency Range Bearing (true) Bearing (mag) Slope Elevation
11 Localiser IECH 109.30 MHz 18 nm / 33 km 135.69° 117.26° - 66 ft / 20 m (AMSL)
11 Glidescope IECH 109.30 MHz 10 nm / 19 km 135.67° 117.25° 3.61° 76 ft / 23 m (AMSL)
11 DME IECH 109.30 MHz 18 nm / 33 km - - - 98 ft / 30 m (AMSL)

Popular Alternatives